Regional Weather Roundup
Issued by NWS

Home | Current Version | Previous Version | Graphics & Text | Print | Product List | Glossary On
Versions: 1 2 3 4 5 6 7 8 9 10 11 12 13 14 15 16 17 18 19 20 21 22 23 24 25 26 27 28 29 30 31 32 33 34 35 36 37 38 39 40 41 42 43 44 45 46 47 48 49 50
000
ASUS43 KLMK 291610
RWRKY
KENTUCKY REGIONAL WEATHER ROUNDUP
NATIONAL WEATHER SERVICE LOUISVILLE KY
1200 PM EDT THU SEP 29 2016

NOTE "FAIR" INDICATES FEW OR NO CLOUDS BELOW 12,000 FEET
WITH NO SIGNIFICANT WEATHER AND/OR OBSTRUCTIONS TO VISIBILITY.

KYZ001>023-026-027-061>063-070>075-291700-
WESTERN AND SOUTH CENTRAL KENTUCKY

CITY           SKY/WX    TMP DP  RH WIND       PRES   REMARKS
PADUCAH        CLOUDY    58  52  80 N8        30.13R
HENDERSON      CLOUDY    57  52  82 N7        30.09S
OWENSBORO      CLOUDY   N/A N/A N/A VRB6      30.09R
HOPKINSVILLE   CLOUDY    57  51  82 NW8       30.11R
BOWLING GREEN  CLOUDY    59  52  77 NE3       30.10S
GLASGOW        PTSUNNY   57  52  83 W3        30.09S
$$

KYZ024-025-028>034-038-045-046-053-291700-
NORTH CENTRAL KENTUCKY

CITY           SKY/WX    TMP DP  RH WIND       PRES   REMARKS
LOUISVILLE/SDF PTSUNNY   59  54  83 W6        30.08R
LOUISVILLE/LOU CLOUDY    61  53  75 W8        30.08R
FORT KNOX      CLOUDY    56  52  86 VRB1      30.07R
$$

KYZ035>037-039>044-047>052-055>060-089>105-291700-
NORTHEAST KENTUCKY

CITY           SKY/WX    TMP DP  RH WIND       PRES   REMARKS
LEXINGTON      PTSUNNY   61  51  70 VRB3      30.06S
COVINGTON      CLOUDY    58  52  80 NE6       30.07S
FRANKFORT      CLOUDY    60  53  77 W3        30.06S
$$

KYZ054-064>069-076>088-106>120-291700-
SOUTHEAST KENTUCKY

CITY           SKY/WX    TMP DP  RH WIND       PRES   REMARKS
JACKSON        CLOUDY    56  54  93 CALM      30.05F FOG
LONDON         CLOUDY    57  49  74 N3        30.07R
SOMERSET       PTSUNNY   59  50  72 W5        30.08S
MIDDLESBORO    CLOUDY    61  51  71 NW6       30.07R
MONTICELLO     MOSUNNY   59  52  77 N10       30.09S
$$




USA.gov is the U.S. government's official web portal to all federal, state and local government web resources and services.